Notices

What's New in latest Release from April 7th, 2021:

- Updated Glossary, including Speed of Maximum Gust, and Total Hourly Precipitation

- Updated national and regional climate services offices contacts and prices information

- Addition of station inventory lists for 1981-2010, 1971-2000, and 1961-1990 Normals.

If you haven't already, please take our survey and provide feedback about our website: https://eccc.sondage-survey.ca/f/LanguageSelection.aspx?s=442ca660-fcf1-47c0-95a9-59707d6fd709

Hourly Data Report for August 12, 2015

IQALUIT CLIMATE
NUNAVUT

63°44'50.000" N
68°32'40.000" W
33.50 m
2402592
71321
XFB

Download Data

Hourly Data (August 2015)
Hourly Data Report for August 12, 2015
TIME
LST
Temp Definition
°C
Dew Point Definition
°C
Rel Hum Definition
%
Precip. Amount Definition
mm

Wind Dir Definition
10's deg

Wind Spd Definition
km/h
Visibility Definition
km
Stn Press Definition
kPa
Hmdx Definition


Wind Chill Definition


Weather Definition


00:00 4.8 1.6 80 0.0 34 12   101.19     LegendNANA
01:00 5.0 1.7 79 0.0 34 3   101.20     LegendNANA
02:00 2.4 0.4 86 0.0 16 1   101.23     LegendNANA
03:00 2.0 0.0 87 0.0 4 4   101.21     LegendNANA
04:00 2.7 0.7 87 0.0 18 3   101.25     LegendNANA
05:00 4.1 1.2 82 0.0 18 4   101.24     LegendNANA
06:00 5.3 1.6 77 0.0 15 5   101.24     LegendNANA
07:00 5.5 1.9 78 0.0 15 9   101.22     LegendNANA
08:00 6.6 1.9 72 0.0 15 9   101.23     LegendNANA
09:00 6.8 1.4 69 0.0 15 8   101.22     LegendNANA
10:00 7.9 1.7 65 0.0 16 9   101.20     LegendNANA
11:00 7.6 2.2 69 0.0 15 12   101.18     LegendNANA
12:00 7.5 2.2 69 0.0 15 10   101.14     LegendNANA
13:00 7.0 2.0 70 0.0 15 10   101.10     LegendNANA
14:00 6.4 1.4 70 0.0 13 10   101.09     LegendNANA
15:00 6.5 1.3 70 0.0 15 12   101.05     LegendNANA
16:00 5.7 1.3 74 0.0 15 12   101.04     LegendNANA
17:00 7.5 1.5 66 0.0 15 16   100.99     LegendNANA
18:00 8.2 1.2 62 0.0 15 17   100.93     LegendNANA
19:00 6.6 0.0 62 0.0 15 15   100.89     LegendNANA
20:00 4.7 0.0 71 0.0 15 12   100.89     LegendNANA
21:00 5.2 0.3 70 0.0 14 7   100.83     LegendNANA
22:00 7.2 0.9 64 0.0 16 11   100.79     LegendNANA
23:00 6.5 1.0 68 0.0 15 9   100.75     LegendNANA

Notes on Data Quality.

Legend

  • E = Estimated
  • M = Missing
  • NA = Not Available*
  • [empty] = Indicates an unobserved value
Date modified: